Location: Azenweiler
(47.8027°N, 9.4096°E)
Time: 00:49:08
(UTC+00:00)

CZ-4 R/B - Pass Details

Date: 10 December 2025
Orbit: 675 x 744 km, 98.7° (Epoch: 17 January)

Event Time Altitude Azimuth Distance (km) Brightness Sun altitude
Rises 05:00:40 0° 11° (N) 3,059 7.1 -19.1°
Reaches altitude 10° 05:02:57 10° 7° (N) 2,133 6.2 -18.8°
Maximum altitude 05:07:30 58° 290° (WNW) 789 3.7 -18.0°
Drops below altitude 10° 05:12:01 10° 211° (SSW) 2,105 6.1 -17.3°
Sets 05:14:15 0° 208° (SSW) 3,016 7.0 -16.9°
